UAE384 OMDB-VTBS

Flight info

Callsign UAE384
Flight time 6h 13m
Altitude 37000
Route IVURO M677 LALDO B505 NADSO B524 ALPOR M504 TELEM A791 BPL T1 GURVI/N0486F390 T1 BBS N895 BETNO P646 TARED WILLA1C
Aircraft A388/J-SADE2E3FGHIJ3J4J5M1RWXY/LB1D1

Departure

Time 2026-04-26 03:27
Airport Dubai International Airport (OMDB)

Arrival

Time 2026-04-26 09:41
Airport Suvarnabhumi Airport (VTBS)
Time Latitude Longitude Altitude Speed Heading
2026-04-26 02:54 25.24534 55.37049 27 ft 0 kts 211°
2026-04-26 03:13 25.24540 55.37053 26 ft 2 kts 210°
2026-04-26 03:13 25.24554 55.37061 25 ft 2 kts 208°
2026-04-26 03:13 25.24569 55.37069 25 ft 2 kts 204°
2026-04-26 03:14 25.24585 55.37075 24 ft 2 kts 198°
2026-04-26 03:14 25.24601 55.37079 25 ft 2 kts 186°
2026-04-26 03:14 25.24617 55.37075 25 ft 2 kts 161°
2026-04-26 03:14 25.24630 55.37064 25 ft 2 kts 134°
2026-04-26 03:15 25.24633 55.37059 24 ft 0 kts 128°
2026-04-26 03:20 25.24629 55.37066 25 ft 3 kts 118°
2026-04-26 03:20 25.24611 55.37101 25 ft 8 kts 120°
2026-04-26 03:20 25.24576 55.37168 27 ft 12 kts 121°
2026-04-26 03:21 25.24526 55.37255 27 ft 15 kts 123°
2026-04-26 03:21 25.24476 55.37338 27 ft 17 kts 123°
2026-04-26 03:21 25.24434 55.37444 27 ft 17 kts 99°
2026-04-26 03:21 25.24426 55.37582 27 ft 19 kts 99°
2026-04-26 03:22 25.24372 55.37711 28 ft 19 kts 122°
2026-04-26 03:22 25.24298 55.37841 28 ft 21 kts 122°
2026-04-26 03:22 25.24220 55.37978 28 ft 21 kts 122°
2026-04-26 03:22 25.24140 55.38120 28 ft 22 kts 122°
2026-04-26 03:23 25.24058 55.38267 28 ft 23 kts 122°
2026-04-26 03:23 25.23974 55.38417 28 ft 23 kts 122°
2026-04-26 03:23 25.23888 55.38569 28 ft 24 kts 121°
2026-04-26 03:23 25.23802 55.38723 28 ft 24 kts 122°
2026-04-26 03:24 25.23717 55.38876 28 ft 24 kts 122°
2026-04-26 03:24 25.23630 55.39031 28 ft 24 kts 122°
2026-04-26 03:24 25.23542 55.39186 28 ft 24 kts 122°
2026-04-26 03:24 25.23480 55.39296 28 ft 11 kts 121°
2026-04-26 03:25 25.23438 55.39373 28 ft 13 kts 121°
2026-04-26 03:25 25.23388 55.39468 27 ft 7 kts 101°
2026-04-26 03:25 25.23405 55.39509 28 ft 7 kts 36°
2026-04-26 03:25 25.23460 55.39547 29 ft 11 kts 31°
2026-04-26 03:26 25.23530 55.39580 30 ft 8 kts 342°
2026-04-26 03:26 25.23555 55.39552 32 ft 3 kts 301°
2026-04-26 03:26 25.23580 55.39507 36 ft 34 kts 302°
2026-04-26 03:27 25.23776 55.39154 37 ft 101 kts 301°
2026-04-26 03:27 25.24255 55.38294 37 ft 160 kts 301°
2026-04-26 03:27 25.24827 55.37219 319 ft 172 kts 300°
2026-04-26 03:27 25.25404 55.36128 959 ft 166 kts 301°
2026-04-26 03:28 25.26052 55.35080 1560 ft 164 kts 307°
2026-04-26 03:28 25.26733 55.34049 1962 ft 175 kts 307°
2026-04-26 03:28 25.27468 55.32903 2113 ft 191 kts 306°
2026-04-26 03:28 25.28243 55.31656 2227 ft 204 kts 304°
2026-04-26 03:29 25.29109 55.30349 2306 ft 216 kts 315°
2026-04-26 03:29 25.30432 55.29552 2619 ft 232 kts 347°
2026-04-26 03:29 25.32028 55.29540 3453 ft 229 kts
2026-04-26 03:29 25.33638 55.29604 4224 ft 233 kts 359°
2026-04-26 03:30 25.35265 55.29633 5064 ft 236 kts 359°
2026-04-26 03:30 25.36906 55.29662 5813 ft 241 kts 359°
2026-04-26 03:30 25.38553 55.29702 6552 ft 246 kts
2026-04-26 03:30 25.40180 55.30282 7270 ft 253 kts 31°
2026-04-26 03:31 25.41466 55.31658 8001 ft 262 kts 49°
2026-04-26 03:31 25.42632 55.33314 8348 ft 285 kts 51°
2026-04-26 03:31 25.43864 55.35115 8807 ft 299 kts 51°
2026-04-26 03:31 25.45147 55.36950 9555 ft 303 kts 50°
2026-04-26 03:32 25.46464 55.38792 10241 ft 309 kts 50°
2026-04-26 03:32 25.47853 55.40704 10486 ft 330 kts 50°
2026-04-26 03:32 25.49315 55.42713 10668 ft 349 kts 50°
2026-04-26 03:32 25.50837 55.44883 11060 ft 361 kts 51°
2026-04-26 03:33 25.52113 55.47218 11672 ft 365 kts 68°
2026-04-26 03:33 25.52637 55.49973 12341 ft 368 kts 89°
2026-04-26 03:33 25.52291 55.52774 13025 ft 369 kts 109°
2026-04-26 03:33 25.51161 55.55316 13709 ft 370 kts 124°
2026-04-26 03:34 25.49689 55.57657 14294 ft 372 kts 128°
2026-04-26 03:34 25.48165 55.59993 14881 ft 376 kts 127°
2026-04-26 03:34 25.46689 55.62355 15446 ft 380 kts 126°
2026-04-26 03:34 25.45225 55.64808 16021 ft 384 kts 125°
2026-04-26 03:35 25.43796 55.67320 16586 ft 388 kts 121°
2026-04-26 03:35 25.42633 55.70034 17143 ft 394 kts 112°
2026-04-26 03:35 25.41826 55.72938 17718 ft 399 kts 104°
2026-04-26 03:35 25.41216 55.75953 18214 ft 403 kts 104°
2026-04-26 03:36 25.40583 55.78991 18688 ft 407 kts 104°
2026-04-26 03:36 25.39935 55.82041 19141 ft 411 kts 104°
2026-04-26 03:36 25.39294 55.85041 19577 ft 414 kts 105°
2026-04-26 03:36 25.38628 55.88149 20029 ft 418 kts 105°
2026-04-26 03:37 25.37964 55.91252 20455 ft 421 kts 104°
2026-04-26 03:37 25.37285 55.94422 20892 ft 425 kts 104°
2026-04-26 03:37 25.36603 55.97604 21330 ft 429 kts 104°
2026-04-26 03:37 25.35913 56.00824 21761 ft 432 kts 104°
2026-04-26 03:38 25.35216 56.04074 22188 ft 435 kts 104°
2026-04-26 03:38 25.34513 56.07344 22631 ft 439 kts 104°
2026-04-26 03:38 25.33805 56.10640 23044 ft 442 kts 105°
2026-04-26 03:38 25.33100 56.13912 23471 ft 445 kts 104°
2026-04-26 03:39 25.32592 56.17306 23831 ft 449 kts 96°
2026-04-26 03:39 25.32329 56.20756 24205 ft 452 kts 96°
2026-04-26 03:39 25.32052 56.24220 24560 ft 455 kts 96°
2026-04-26 03:39 25.31763 56.27708 24904 ft 458 kts 96°
2026-04-26 03:40 25.31469 56.31224 25299 ft 460 kts 96°
2026-04-26 03:40 25.31171 56.34763 25687 ft 463 kts 96°
2026-04-26 03:40 25.30872 56.38315 26075 ft 466 kts 96°
2026-04-26 03:40 25.30693 56.41895 26462 ft 469 kts 92°
2026-04-26 03:41 25.30598 56.45473 26873 ft 473 kts 92°
2026-04-26 03:41 25.30494 56.49108 27313 ft 476 kts 93°
2026-04-26 03:41 25.30386 56.52773 27761 ft 479 kts 93°
2026-04-26 03:41 25.30232 56.56460 28200 ft 482 kts 97°
2026-04-26 03:42 25.29707 56.60117 28667 ft 484 kts 105°
2026-04-26 03:42 25.28758 56.63696 29136 ft 485 kts 112°
2026-04-26 03:42 25.27468 56.67142 29592 ft 487 kts 116°
2026-04-26 03:42 25.26162 56.70552 30058 ft 490 kts 115°
2026-04-26 03:43 25.24841 56.74036 30444 ft 494 kts 115°
2026-04-26 03:43 25.23515 56.77540 30856 ft 497 kts 115°
2026-04-26 03:43 25.22177 56.81076 31256 ft 501 kts 115°
2026-04-26 03:43 25.20827 56.84635 31654 ft 504 kts 115°
2026-04-26 03:44 25.19463 56.88223 32028 ft 508 kts 115°
2026-04-26 03:44 25.18092 56.91828 32417 ft 512 kts 115°
2026-04-26 03:44 25.16710 56.95457 32798 ft 515 kts 114°
2026-04-26 03:44 25.15315 56.99117 33178 ft 518 kts 114°
2026-04-26 03:45 25.13914 57.02790 33572 ft 522 kts 114°
2026-04-26 03:45 25.12519 57.06444 33932 ft 525 kts 114°
2026-04-26 03:45 25.11092 57.10177 34239 ft 529 kts 114°
2026-04-26 03:45 25.09654 57.13938 34532 ft 533 kts 114°
2026-04-26 03:46 25.08212 57.17703 34925 ft 535 kts 113°
2026-04-26 03:46 25.06764 57.21483 35316 ft 536 kts 113°
2026-04-26 03:46 25.05304 57.25289 35718 ft 538 kts 113°
2026-04-26 03:47 25.02401 57.32849 36493 ft 540 kts 112°
2026-04-26 03:47 25.00934 57.36664 36841 ft 542 kts 112°
2026-04-26 03:47 24.99452 57.40515 36877 ft 548 kts 112°
2026-04-26 03:48 24.96495 57.48189 36880 ft 543 kts 112°
2026-04-26 03:48 24.93536 57.55851 36878 ft 543 kts 112°
2026-04-26 03:49 24.90593 57.63459 36879 ft 543 kts 112°
2026-04-26 03:49 24.87635 57.71092 36875 ft 542 kts 112°
2026-04-26 03:50 24.84675 57.78717 36874 ft 541 kts 112°
2026-04-26 03:50 24.82384 57.86514 36872 ft 537 kts 100°
2026-04-26 03:51 24.80798 57.94499 36872 ft 537 kts 101°
2026-04-26 03:51 24.79161 58.02547 36870 ft 536 kts 101°
2026-04-26 03:52 24.77529 58.10535 36872 ft 535 kts 101°
2026-04-26 03:52 24.75895 58.18524 36865 ft 535 kts 101°
2026-04-26 03:53 24.74269 58.26447 36861 ft 534 kts 101°
2026-04-26 03:53 24.72631 58.34412 36857 ft 534 kts 101°
2026-04-26 03:54 24.70987 58.42376 36854 ft 534 kts 101°
2026-04-26 03:54 24.69342 58.50329 36851 ft 533 kts 101°
2026-04-26 03:55 24.67704 58.58224 36854 ft 533 kts 101°
2026-04-26 03:55 24.66051 58.66168 36851 ft 533 kts 101°
2026-04-26 03:56 24.64393 58.74113 36853 ft 533 kts 101°
2026-04-26 03:56 24.62734 58.82043 36859 ft 533 kts 101°
2026-04-26 03:57 24.61085 58.89901 36853 ft 533 kts 101°
2026-04-26 03:57 24.59414 58.97843 36852 ft 533 kts 101°
2026-04-26 03:58 24.57741 59.05773 36846 ft 533 kts 101°
2026-04-26 03:58 24.56061 59.13715 36846 ft 533 kts 101°
2026-04-26 03:59 24.54391 59.21594 36847 ft 534 kts 101°
2026-04-26 03:59 24.52700 59.29536 36850 ft 535 kts 101°
2026-04-26 04:00 24.51002 59.37489 36849 ft 536 kts 101°
2026-04-26 04:00 24.49299 59.45450 36858 ft 536 kts 101°
2026-04-26 04:01 24.47590 59.53412 36866 ft 536 kts 101°
2026-04-26 04:01 24.45886 59.61329 36874 ft 535 kts 101°
2026-04-26 04:02 24.44171 59.69275 36872 ft 535 kts 101°
2026-04-26 04:02 24.42454 59.77215 36871 ft 534 kts 101°
2026-04-26 04:03 24.40747 59.85080 36873 ft 533 kts 101°
2026-04-26 04:03 24.39031 59.92974 36872 ft 532 kts 101°
2026-04-26 04:04 24.37310 60.00862 36871 ft 531 kts 101°
2026-04-26 04:04 24.35590 60.08732 36867 ft 530 kts 101°
2026-04-26 04:05 24.33877 60.16549 36862 ft 530 kts 101°
2026-04-26 04:05 24.32153 60.24400 36859 ft 529 kts 101°
2026-04-26 04:06 24.30428 60.32236 36849 ft 529 kts 101°
2026-04-26 04:06 24.28699 60.40071 36856 ft 528 kts 101°
2026-04-26 04:07 24.26968 60.47894 36855 ft 528 kts 101°
2026-04-26 04:07 24.25247 60.55650 36858 ft 527 kts 102°
2026-04-26 04:08 24.23513 60.63446 36855 ft 527 kts 102°
2026-04-26 04:08 24.21776 60.71236 36861 ft 526 kts 102°
2026-04-26 04:09 24.20048 60.78967 36860 ft 525 kts 102°
2026-04-26 04:09 24.18315 60.86726 36860 ft 525 kts 102°
2026-04-26 04:10 24.16577 60.94483 36858 ft 524 kts 102°
2026-04-26 04:10 24.14837 61.02229 36859 ft 523 kts 102°
2026-04-26 04:11 24.13097 61.09956 36859 ft 523 kts 102°
2026-04-26 04:11 24.11365 61.17626 36856 ft 522 kts 102°
2026-04-26 04:12 24.09618 61.25342 36861 ft 522 kts 102°
2026-04-26 04:12 24.07986 61.33071 36862 ft 520 kts 97°
2026-04-26 04:13 24.07357 61.40923 36858 ft 517 kts 91°
2026-04-26 04:13 24.06899 61.48770 36861 ft 517 kts 91°
2026-04-26 04:14 24.06432 61.56568 36863 ft 517 kts 91°
2026-04-26 04:14 24.05959 61.64413 36863 ft 516 kts 91°
2026-04-26 04:15 24.05483 61.72248 36865 ft 516 kts 91°
2026-04-26 04:15 24.05003 61.80086 36864 ft 516 kts 91°
2026-04-26 04:16 24.04523 61.87855 36866 ft 515 kts 91°
2026-04-26 04:16 24.04035 61.95682 36848 ft 516 kts 91°
2026-04-26 04:17 24.03544 62.03502 36860 ft 516 kts 91°
2026-04-26 04:17 24.03049 62.11325 36862 ft 516 kts 92°
2026-04-26 04:18 24.02553 62.19102 36863 ft 516 kts 92°
2026-04-26 04:18 24.02050 62.26911 36865 ft 515 kts 92°
2026-04-26 04:19 24.01543 62.34735 36866 ft 515 kts 92°
2026-04-26 04:19 24.01032 62.42554 36864 ft 515 kts 92°
2026-04-26 04:20 24.00520 62.50322 36870 ft 515 kts 92°
2026-04-26 04:20 24.00001 62.58136 36871 ft 515 kts 92°
2026-04-26 04:21 23.99479 62.65941 36874 ft 515 kts 92°
2026-04-26 04:21 23.98953 62.73746 36876 ft 515 kts 92°
2026-04-26 04:22 23.98427 62.81498 36876 ft 514 kts 93°
2026-04-26 04:22 23.97894 62.89289 36875 ft 514 kts 93°
2026-04-26 04:23 23.97356 62.97084 36875 ft 514 kts 93°
2026-04-26 04:23 23.96819 63.04822 36878 ft 516 kts 93°
2026-04-26 04:24 23.96273 63.12624 36879 ft 513 kts 93°
2026-04-26 04:24 23.95725 63.20404 36878 ft 513 kts 93°
2026-04-26 04:25 23.95174 63.28172 36879 ft 513 kts 93°
2026-04-26 04:25 23.94617 63.35955 36878 ft 513 kts 93°
2026-04-26 04:26 23.94061 63.43679 36881 ft 513 kts 93°
2026-04-26 04:26 23.93497 63.51459 36879 ft 513 kts 94°
2026-04-26 04:27 23.92930 63.59226 36874 ft 513 kts 94°
2026-04-26 04:27 23.92358 63.67003 36880 ft 513 kts 94°
2026-04-26 04:28 23.91787 63.74722 36880 ft 513 kts 94°
2026-04-26 04:28 23.91208 63.82493 36882 ft 513 kts 94°
2026-04-26 04:29 23.90625 63.90265 36881 ft 513 kts 94°
2026-04-26 04:29 23.90039 63.98023 36883 ft 513 kts 94°
2026-04-26 04:30 23.89452 64.05742 36887 ft 513 kts 94°
2026-04-26 04:30 23.88858 64.13501 36887 ft 512 kts 94°
2026-04-26 04:31 23.88260 64.21257 36888 ft 512 kts 94°
2026-04-26 04:31 23.87663 64.28956 36888 ft 512 kts 94°
2026-04-26 04:32 23.87058 64.36694 36887 ft 511 kts 94°
2026-04-26 04:32 23.86450 64.44432 36890 ft 511 kts 94°
2026-04-26 04:33 23.85838 64.52169 36888 ft 511 kts 94°
2026-04-26 04:33 23.85227 64.59849 36888 ft 510 kts 94°
2026-04-26 04:34 23.84609 64.67556 36887 ft 510 kts 94°
2026-04-26 04:34 23.83988 64.75278 36884 ft 510 kts 94°
2026-04-26 04:35 23.83376 64.82982 36881 ft 509 kts 92°
2026-04-26 04:35 23.83362 64.90707 36880 ft 508 kts 89°
2026-04-26 04:36 23.83428 64.98412 36877 ft 508 kts 89°
2026-04-26 04:36 23.83477 65.06086 36874 ft 508 kts 89°
2026-04-26 04:37 23.83518 65.13795 36879 ft 508 kts 89°
2026-04-26 04:37 23.83555 65.21516 36873 ft 508 kts 89°
2026-04-26 04:38 23.83588 65.29234 36878 ft 508 kts 89°
2026-04-26 04:38 23.83617 65.36912 36882 ft 509 kts 89°
2026-04-26 04:39 23.83642 65.44642 36881 ft 509 kts 89°
2026-04-26 04:39 23.83664 65.52381 36878 ft 509 kts 89°
2026-04-26 04:40 23.83681 65.60071 36878 ft 510 kts 89°
2026-04-26 04:40 23.83695 65.67856 36880 ft 510 kts 89°
2026-04-26 04:41 23.83705 65.75548 36880 ft 510 kts 89°
2026-04-26 04:41 23.83711 65.83298 36879 ft 510 kts 90°
2026-04-26 04:42 23.83713 65.91048 36881 ft 510 kts 90°
2026-04-26 04:42 23.83712 65.98797 36878 ft 510 kts 90°
2026-04-26 04:43 23.83706 66.06487 36880 ft 510 kts 90°
2026-04-26 04:43 23.83697 66.14242 36879 ft 510 kts 90°
2026-04-26 04:44 23.83684 66.21997 36881 ft 510 kts 90°
2026-04-26 04:44 23.83667 66.29694 36876 ft 510 kts 90°
2026-04-26 04:45 23.83646 66.37433 36876 ft 510 kts 90°
2026-04-26 04:45 23.83621 66.45191 36877 ft 510 kts 90°
2026-04-26 04:46 23.83592 66.52947 36877 ft 510 kts 90°
2026-04-26 04:46 23.83560 66.60649 36877 ft 510 kts 90°
2026-04-26 04:47 23.83523 66.68403 36879 ft 510 kts 90°
2026-04-26 04:47 23.83483 66.76142 36877 ft 510 kts 90°
2026-04-26 04:48 23.83415 66.87771 36879 ft 510 kts 90°
2026-04-26 04:48 23.83366 66.95464 36882 ft 510 kts 90°
2026-04-26 04:49 23.83845 67.03170 36880 ft 509 kts 80°
2026-04-26 04:49 23.85133 67.10773 36873 ft 509 kts 79°
2026-04-26 04:50 23.86391 67.18365 36866 ft 508 kts 79°
2026-04-26 04:50 23.87645 67.25968 36872 ft 508 kts 79°
2026-04-26 04:51 23.88896 67.33568 36871 ft 508 kts 79°
2026-04-26 04:51 23.90136 67.41118 36859 ft 508 kts 79°
2026-04-26 04:52 23.91377 67.48703 36863 ft 508 kts 79°
2026-04-26 04:52 23.92617 67.56305 36864 ft 508 kts 79°
2026-04-26 04:53 23.93846 67.63861 36857 ft 508 kts 79°
2026-04-26 04:53 23.95079 67.71466 36851 ft 509 kts 79°
2026-04-26 04:54 23.96309 67.79074 36855 ft 509 kts 79°
2026-04-26 04:54 23.97539 67.86711 36855 ft 510 kts 79°
2026-04-26 04:55 23.98756 67.94295 36860 ft 510 kts 79°
2026-04-26 04:55 23.99978 68.01933 36862 ft 510 kts 80°
2026-04-26 04:56 24.01197 68.09577 36860 ft 510 kts 79°
2026-04-26 04:56 24.02413 68.17225 36861 ft 510 kts 80°
2026-04-26 04:57 24.03626 68.24878 36854 ft 510 kts 80°
2026-04-26 04:57 24.04826 68.32481 36855 ft 510 kts 80°
2026-04-26 04:58 24.06028 68.40118 36853 ft 510 kts 80°
2026-04-26 04:58 24.07228 68.47764 36853 ft 509 kts 80°
2026-04-26 04:59 24.08220 68.54109 36852 ft 509 kts 80°
2026-04-26 04:59 24.09411 68.61751 36846 ft 509 kts 80°
2026-04-26 05:00 24.10789 68.70621 36845 ft 508 kts 80°
2026-04-26 05:00 24.11584 68.76990 36844 ft 508 kts 86°
2026-04-26 05:01 24.11605 68.84723 36837 ft 508 kts 91°
2026-04-26 05:01 24.11480 68.93607 36833 ft 508 kts 90°
2026-04-26 05:02 24.11392 69.00030 36840 ft 508 kts 90°
2026-04-26 05:02 24.11258 69.09074 36833 ft 508 kts 91°
2026-04-26 05:03 24.11137 69.16803 36836 ft 508 kts 91°
2026-04-26 05:03 24.11033 69.23230 36837 ft 508 kts 91°
2026-04-26 05:04 24.10905 69.30952 36837 ft 508 kts 91°
2026-04-26 05:04 24.10774 69.38634 36837 ft 508 kts 91°
2026-04-26 05:05 24.10614 69.47675 36836 ft 508 kts 91°
2026-04-26 05:05 24.10498 69.54097 36841 ft 508 kts 91°
2026-04-26 05:06 24.10354 69.61837 36838 ft 508 kts 91°
2026-04-26 05:06 24.10206 69.69577 36838 ft 508 kts 91°
2026-04-26 05:07 24.10059 69.77046 36840 ft 508 kts 91°
2026-04-26 05:07 24.09914 69.84293 36832 ft 508 kts 91°
2026-04-26 05:08 24.09755 69.92033 36835 ft 508 kts 91°
2026-04-26 05:08 24.09592 69.99764 36837 ft 508 kts 91°
2026-04-26 05:09 24.09426 70.07440 36833 ft 508 kts 91°
2026-04-26 05:09 24.09256 70.15162 36833 ft 508 kts 91°
2026-04-26 05:10 24.09089 70.22553 36837 ft 508 kts 91°
2026-04-26 05:10 24.08911 70.30268 36837 ft 508 kts 91°
2026-04-26 05:11 24.08729 70.38007 36837 ft 508 kts 91°
2026-04-26 05:11 24.08544 70.45680 36840 ft 508 kts 91°
2026-04-26 05:12 24.08355 70.53404 36837 ft 508 kts 91°
2026-04-26 05:12 24.08161 70.61136 36837 ft 508 kts 91°
2026-04-26 05:13 24.08016 70.66820 36839 ft 508 kts 91°
2026-04-26 05:13 24.07816 70.74499 36838 ft 508 kts 91°
2026-04-26 05:14 24.07612 70.82218 36845 ft 508 kts 91°
2026-04-26 05:14 24.07404 70.89944 36841 ft 508 kts 91°
2026-04-26 05:15 24.07194 70.97656 36836 ft 508 kts 91°
2026-04-26 05:15 24.06980 71.05331 36841 ft 508 kts 91°
2026-04-26 05:16 24.06762 71.13048 36834 ft 508 kts 91°
2026-04-26 05:16 24.06541 71.20774 36838 ft 508 kts 91°
2026-04-26 05:17 24.06317 71.28455 36834 ft 508 kts 91°
2026-04-26 05:17 24.06088 71.36174 36832 ft 508 kts 91°
2026-04-26 05:18 24.05855 71.43902 36833 ft 508 kts 91°
2026-04-26 05:18 24.05618 71.51632 36837 ft 508 kts 91°
2026-04-26 05:19 24.05377 71.59360 36840 ft 509 kts 91°
2026-04-26 05:19 24.05134 71.67043 36842 ft 509 kts 92°
2026-04-26 05:20 24.04885 71.74777 36849 ft 509 kts 92°
2026-04-26 05:20 24.04632 71.82514 36845 ft 509 kts 92°
2026-04-26 05:21 24.04375 71.90256 36854 ft 509 kts 92°
2026-04-26 05:21 24.04119 71.97850 36852 ft 509 kts 92°
2026-04-26 05:22 24.03855 72.05590 36853 ft 510 kts 92°
2026-04-26 05:22 24.03586 72.13336 36858 ft 510 kts 92°
2026-04-26 05:23 24.03314 72.21078 36857 ft 510 kts 92°
2026-04-26 05:23 24.03039 72.28771 36864 ft 510 kts 92°
2026-04-26 05:24 24.02759 72.36512 36864 ft 510 kts 92°
2026-04-26 05:24 24.02475 72.44259 36864 ft 510 kts 92°
2026-04-26 05:25 24.02186 72.52017 36865 ft 510 kts 92°
2026-04-26 05:25 24.01896 72.59703 36867 ft 510 kts 92°
2026-04-26 05:26 24.01601 72.67451 36867 ft 510 kts 92°
2026-04-26 05:26 24.01641 72.75208 36869 ft 510 kts 88°
2026-04-26 05:27 24.01817 72.82970 36866 ft 510 kts 88°
2026-04-26 05:27 24.01933 72.90726 36874 ft 510 kts 89°
2026-04-26 05:28 24.02023 72.98423 36868 ft 510 kts 89°
2026-04-26 05:28 24.02107 73.06185 36879 ft 510 kts 89°
2026-04-26 05:29 24.02190 73.13952 36883 ft 510 kts 89°
2026-04-26 05:29 24.02268 73.21708 36880 ft 511 kts 89°
2026-04-26 05:30 24.02341 73.29424 36882 ft 511 kts 89°
2026-04-26 05:30 24.02412 73.37195 36883 ft 511 kts 89°
2026-04-26 05:31 24.02479 73.44983 36888 ft 511 kts 89°
2026-04-26 05:31 24.02541 73.52742 36886 ft 511 kts 89°
2026-04-26 05:32 24.02600 73.60479 36882 ft 511 kts 89°
2026-04-26 05:32 24.02655 73.68250 36886 ft 512 kts 89°
2026-04-26 05:33 24.02705 73.76037 36884 ft 512 kts 89°
2026-04-26 05:33 24.02750 73.83833 36886 ft 512 kts 89°
2026-04-26 05:34 24.02790 73.91613 36887 ft 512 kts 89°
2026-04-26 05:34 24.02826 73.99359 36890 ft 512 kts 89°
2026-04-26 05:35 24.02859 74.07119 36890 ft 513 kts 90°
2026-04-26 05:35 24.02941 74.14944 36897 ft 513 kts 89°
2026-04-26 05:36 24.03071 74.22740 36903 ft 513 kts 89°
2026-04-26 05:36 24.03186 74.30499 36907 ft 513 kts 89°
2026-04-26 05:37 24.03291 74.38258 36908 ft 513 kts 89°
2026-04-26 05:37 24.03391 74.46067 36914 ft 513 kts 89°
2026-04-26 05:38 24.03488 74.53861 36922 ft 513 kts 89°
2026-04-26 05:38 24.03580 74.61615 36929 ft 513 kts 89°
2026-04-26 05:39 24.03652 74.68476 36923 ft 513 kts 90°
2026-04-26 05:39 24.02953 74.76235 36930 ft 513 kts 101°
2026-04-26 05:40 24.01091 74.83741 36929 ft 512 kts 108°
2026-04-26 05:40 23.98994 74.91187 36932 ft 512 kts 108°
2026-04-26 05:41 23.96921 74.98576 36929 ft 512 kts 108°
2026-04-26 05:41 23.94826 75.06012 36927 ft 512 kts 108°
2026-04-26 05:42 23.92727 75.13435 36934 ft 512 kts 108°
2026-04-26 05:42 23.90623 75.20860 36932 ft 511 kts 108°
2026-04-26 05:43 23.88529 75.28231 36927 ft 511 kts 108°
2026-04-26 05:43 23.86418 75.35654 36927 ft 511 kts 108°
2026-04-26 05:44 23.84303 75.43071 36925 ft 511 kts 108°
2026-04-26 05:44 23.82187 75.50482 36923 ft 511 kts 108°
2026-04-26 05:45 23.80067 75.57889 36922 ft 511 kts 108°
2026-04-26 05:45 23.77953 75.65260 36920 ft 512 kts 108°
2026-04-26 05:46 23.75824 75.72668 36916 ft 512 kts 108°
2026-04-26 05:46 23.73692 75.80075 36914 ft 512 kts 108°
2026-04-26 05:47 23.71555 75.87482 36913 ft 512 kts 108°
2026-04-26 05:47 23.69428 75.94839 36907 ft 512 kts 108°
2026-04-26 05:48 23.67282 76.02248 36900 ft 512 kts 108°
2026-04-26 05:48 23.65119 76.09657 36894 ft 512 kts 108°
2026-04-26 05:49 23.61886 76.20712 36886 ft 513 kts 109°
2026-04-26 05:50 23.59715 76.28120 36883 ft 513 kts 109°
2026-04-26 05:50 23.57590 76.35356 36882 ft 513 kts 109°
2026-04-26 05:51 23.55464 76.42585 36874 ft 513 kts 109°
2026-04-26 05:51 23.53281 76.49988 36872 ft 514 kts 109°
2026-04-26 05:52 23.51107 76.57352 36863 ft 514 kts 109°
2026-04-26 05:52 23.48909 76.64780 36861 ft 515 kts 109°
2026-04-26 05:53 23.46713 76.72184 36858 ft 515 kts 109°
2026-04-26 05:53 23.44503 76.79626 36854 ft 516 kts 109°
2026-04-26 05:54 23.42291 76.87056 36856 ft 517 kts 109°
2026-04-26 05:54 23.40085 76.94455 36851 ft 518 kts 109°
2026-04-26 05:55 23.37850 77.01937 36862 ft 519 kts 110°
2026-04-26 05:55 23.35619 77.09391 36877 ft 520 kts 110°
2026-04-26 05:56 23.33368 77.16895 36895 ft 521 kts 110°
2026-04-26 05:56 23.31132 77.24336 36912 ft 522 kts 110°
2026-04-26 05:57 23.28868 77.31857 36915 ft 523 kts 110°
2026-04-26 05:57 23.26498 77.39349 36915 ft 524 kts 112°
2026-04-26 05:58 23.23967 77.46775 36908 ft 525 kts 112°
2026-04-26 05:58 23.21467 77.54182 36882 ft 526 kts 112°
2026-04-26 05:59 23.18959 77.61656 36855 ft 527 kts 112°
2026-04-26 05:59 23.16448 77.69134 36827 ft 528 kts 112°
2026-04-26 06:00 23.13941 77.76586 36824 ft 529 kts 112°
2026-04-26 06:00 23.11443 77.83996 36822 ft 530 kts 113°
2026-04-26 06:01 23.08902 77.91519 36820 ft 531 kts 113°
2026-04-26 06:01 23.06367 77.99014 36826 ft 533 kts 113°
2026-04-26 06:02 23.03807 78.06567 36825 ft 534 kts 113°
2026-04-26 06:02 23.01236 78.14139 36825 ft 535 kts 113°
2026-04-26 06:03 22.98658 78.21722 36826 ft 536 kts 113°
2026-04-26 06:03 22.96092 78.29254 36825 ft 537 kts 113°
2026-04-26 06:04 22.93492 78.36871 36828 ft 538 kts 114°
2026-04-26 06:04 22.90890 78.44482 36829 ft 539 kts 114°
2026-04-26 06:05 22.88276 78.52113 36832 ft 540 kts 114°
2026-04-26 06:05 22.85673 78.59699 36835 ft 541 kts 114°
2026-04-26 06:06 22.83046 78.67341 36836 ft 542 kts 114°
2026-04-26 06:06 22.80409 78.75001 36840 ft 543 kts 114°
2026-04-26 06:07 22.77763 78.82671 36846 ft 543 kts 114°
2026-04-26 06:07 22.75131 78.90287 36851 ft 544 kts 114°
2026-04-26 06:08 22.72470 78.97976 36855 ft 545 kts 114°
2026-04-26 06:08 22.70069 79.04900 36852 ft 545 kts 114°
2026-04-26 06:09 22.67494 79.12313 36852 ft 546 kts 114°
2026-04-26 06:09 22.64833 79.19960 36855 ft 546 kts 114°
2026-04-26 06:10 22.62151 79.27654 36857 ft 547 kts 114°
2026-04-26 06:10 22.59463 79.35355 36863 ft 547 kts 115°
2026-04-26 06:11 22.56771 79.43057 36855 ft 548 kts 115°
2026-04-26 06:11 22.54106 79.50719 36856 ft 549 kts 114°
2026-04-26 06:12 22.51426 79.58453 36859 ft 549 kts 114°
2026-04-26 06:12 22.48736 79.66194 36866 ft 550 kts 115°
2026-04-26 06:13 22.46041 79.73931 36865 ft 551 kts 115°
2026-04-26 06:13 22.43355 79.81626 36864 ft 551 kts 115°
2026-04-26 06:14 22.40644 79.89380 36864 ft 551 kts 115°
2026-04-26 06:14 22.37933 79.97121 36861 ft 552 kts 115°
2026-04-26 06:15 22.35217 80.04860 36862 ft 552 kts 115°
2026-04-26 06:15 22.32821 80.11680 36860 ft 553 kts 115°
2026-04-26 06:16 22.30107 80.19389 36857 ft 553 kts 115°
2026-04-26 06:16 22.27368 80.27157 36861 ft 554 kts 115°
2026-04-26 06:17 22.24623 80.34930 36854 ft 554 kts 115°
2026-04-26 06:17 22.21892 80.42648 36850 ft 554 kts 115°
2026-04-26 06:18 22.19139 80.50422 36851 ft 554 kts 115°
2026-04-26 06:18 22.16385 80.58193 36856 ft 555 kts 115°
2026-04-26 06:19 22.13629 80.65955 36853 ft 555 kts 115°
2026-04-26 06:19 22.10864 80.73726 36851 ft 555 kts 115°
2026-04-26 06:20 22.08116 80.81436 36855 ft 555 kts 115°
2026-04-26 06:20 22.05343 80.89205 36848 ft 555 kts 115°
2026-04-26 06:21 22.02569 80.96962 36840 ft 555 kts 115°
2026-04-26 06:21 21.99789 81.04720 36838 ft 555 kts 115°
2026-04-26 06:22 21.97025 81.12423 36826 ft 554 kts 115°
2026-04-26 06:22 21.94242 81.20169 36822 ft 554 kts 115°
2026-04-26 06:23 21.91457 81.27903 36816 ft 554 kts 115°
2026-04-26 06:23 21.88664 81.35646 36813 ft 554 kts 115°
2026-04-26 06:24 21.85873 81.43373 36811 ft 554 kts 115°
2026-04-26 06:24 21.83096 81.51047 36814 ft 554 kts 116°
2026-04-26 06:25 21.80293 81.58779 36817 ft 554 kts 116°
2026-04-26 06:25 21.77642 81.66555 36817 ft 557 kts 111°
2026-04-26 06:26 21.75392 81.74479 36813 ft 557 kts 111°
2026-04-26 06:26 21.73114 81.82433 36817 ft 557 kts 111°
2026-04-26 06:27 21.70822 81.90400 36820 ft 557 kts 111°
2026-04-26 06:27 21.68526 81.98362 36818 ft 557 kts 111°
2026-04-26 06:28 21.66226 82.06317 36814 ft 558 kts 111°
2026-04-26 06:28 21.63931 82.14227 36816 ft 558 kts 111°
2026-04-26 06:29 21.61617 82.22191 36807 ft 558 kts 111°
2026-04-26 06:29 21.59325 82.30067 36801 ft 558 kts 111°
2026-04-26 06:30 21.57501 82.36324 36804 ft 558 kts 111°
2026-04-26 06:30 21.55179 82.44271 36810 ft 558 kts 111°
2026-04-26 06:31 21.52852 82.52224 36803 ft 558 kts 111°
2026-04-26 06:31 21.50537 82.60120 36796 ft 558 kts 111°
2026-04-26 06:32 21.48146 82.68032 36799 ft 555 kts 115°
2026-04-26 06:32 21.45213 82.75663 36793 ft 554 kts 117°
2026-04-26 06:33 21.42292 82.83282 36791 ft 554 kts 117°
2026-04-26 06:33 21.39363 82.90911 36789 ft 553 kts 117°
2026-04-26 06:34 21.36426 82.98545 36782 ft 553 kts 117°
2026-04-26 06:34 21.33504 83.06125 36780 ft 553 kts 117°
2026-04-26 06:35 21.30565 83.13737 36780 ft 553 kts 117°
2026-04-26 06:35 21.27623 83.21347 36783 ft 552 kts 117°
2026-04-26 06:36 21.24694 83.28909 36774 ft 552 kts 117°
2026-04-26 06:36 21.21752 83.36493 36768 ft 552 kts 117°
2026-04-26 06:37 21.18803 83.44085 36768 ft 551 kts 117°
2026-04-26 06:37 21.16529 83.49928 36767 ft 551 kts 117°
2026-04-26 06:38 21.13595 83.57461 36761 ft 551 kts 117°
2026-04-26 06:38 21.10643 83.65029 36760 ft 551 kts 117°
2026-04-26 06:39 21.07681 83.72606 37123 ft 553 kts 117°
2026-04-26 06:39 21.06199 83.76398 37748 ft 551 kts 117°
2026-04-26 06:39 21.04721 83.80176 38333 ft 549 kts 117°
2026-04-26 06:39 21.03245 83.83942 38660 ft 552 kts 117°
2026-04-26 06:40 21.01769 83.87710 38735 ft 544 kts 117°
2026-04-26 06:40 20.98860 83.95133 38744 ft 542 kts 117°
2026-04-26 06:41 20.95950 84.02537 38743 ft 543 kts 117°
2026-04-26 06:41 20.93021 84.09984 38743 ft 543 kts 117°
2026-04-26 06:42 20.90092 84.17418 38739 ft 542 kts 117°
2026-04-26 06:42 20.87179 84.24800 38746 ft 542 kts 117°
2026-04-26 06:43 20.84256 84.32197 38761 ft 542 kts 117°
2026-04-26 06:43 20.81313 84.39635 38764 ft 541 kts 117°
2026-04-26 06:44 20.78380 84.47034 38767 ft 541 kts 117°
2026-04-26 06:44 20.75437 84.54449 38761 ft 541 kts 117°
2026-04-26 06:45 20.72941 84.60728 38753 ft 541 kts 117°
2026-04-26 06:45 20.70001 84.68115 38778 ft 542 kts 117°
2026-04-26 06:46 20.67046 84.75531 38781 ft 542 kts 117°
2026-04-26 06:46 20.64106 84.82895 38779 ft 541 kts 117°
2026-04-26 06:47 20.61174 84.90230 38783 ft 541 kts 117°
2026-04-26 06:47 20.58220 84.97610 38784 ft 541 kts 117°
2026-04-26 06:48 20.55260 85.04994 38789 ft 540 kts 117°
2026-04-26 06:48 20.52302 85.12362 38788 ft 540 kts 117°
2026-04-26 06:49 20.49364 85.19669 38789 ft 540 kts 117°
2026-04-26 06:49 20.46403 85.27024 38791 ft 539 kts 117°
2026-04-26 06:50 20.43444 85.34364 38794 ft 538 kts 118°
2026-04-26 06:50 20.40485 85.41693 38794 ft 538 kts 118°
2026-04-26 06:51 20.37526 85.49012 38796 ft 537 kts 118°
2026-04-26 06:51 20.33108 85.59919 38796 ft 536 kts 118°
2026-04-26 06:52 20.30888 85.65389 38800 ft 536 kts 118°
2026-04-26 06:52 20.28003 85.72490 38799 ft 538 kts 118°
2026-04-26 06:53 20.25062 85.79728 38803 ft 535 kts 118°
2026-04-26 06:53 20.22227 85.87075 38803 ft 538 kts 115°
2026-04-26 06:54 20.19583 85.94535 38804 ft 538 kts 115°
2026-04-26 06:54 20.16905 86.01974 38801 ft 538 kts 115°
2026-04-26 06:55 20.14222 86.09344 38803 ft 538 kts 115°
2026-04-26 06:55 20.11514 86.16763 38807 ft 538 kts 115°
2026-04-26 06:56 20.08807 86.24190 38790 ft 538 kts 115°
2026-04-26 06:56 20.06104 86.31614 38792 ft 538 kts 115°
2026-04-26 06:57 20.03419 86.38976 38794 ft 538 kts 115°
2026-04-26 06:57 20.00703 86.46407 38800 ft 538 kts 115°
2026-04-26 06:58 19.97989 86.53819 38800 ft 539 kts 115°
2026-04-26 06:58 19.95271 86.61236 38806 ft 539 kts 115°
2026-04-26 06:59 19.92620 86.68456 38813 ft 539 kts 115°
2026-04-26 06:59 19.90135 86.75214 38810 ft 539 kts 115°
2026-04-26 07:00 19.87399 86.82637 38813 ft 539 kts 115°
2026-04-26 07:00 19.84663 86.90055 38821 ft 539 kts 115°
2026-04-26 07:01 19.81926 86.97466 38826 ft 539 kts 115°
2026-04-26 07:01 19.79182 87.04884 38827 ft 539 kts 115°
2026-04-26 07:02 19.76449 87.12257 38824 ft 546 kts 115°
2026-04-26 07:02 19.73691 87.19695 38819 ft 537 kts 115°
2026-04-26 07:03 19.71005 87.26923 38821 ft 537 kts 115°
2026-04-26 07:03 19.68255 87.34311 38820 ft 538 kts 115°
2026-04-26 07:04 19.65525 87.41636 38826 ft 537 kts 115°
2026-04-26 07:04 19.62779 87.48994 38821 ft 537 kts 115°
2026-04-26 07:05 19.60026 87.56361 38825 ft 537 kts 115°
2026-04-26 07:05 19.57273 87.63716 38824 ft 536 kts 115°
2026-04-26 07:06 19.54518 87.71066 38820 ft 536 kts 116°
2026-04-26 07:06 19.51784 87.78351 38827 ft 536 kts 116°
2026-04-26 07:07 19.49027 87.85688 38825 ft 536 kts 116°
2026-04-26 07:07 19.46268 87.93017 38824 ft 535 kts 116°
2026-04-26 07:08 19.43504 88.00350 38829 ft 535 kts 116°
2026-04-26 07:08 19.40742 88.07669 38821 ft 535 kts 116°
2026-04-26 07:09 19.38000 88.14922 38826 ft 535 kts 116°
2026-04-26 07:09 19.35228 88.22245 38825 ft 535 kts 116°
2026-04-26 07:11 19.28664 88.39547 38824 ft 535 kts 116°
2026-04-26 07:11 19.25904 88.46805 38831 ft 535 kts 116°
2026-04-26 07:12 19.23127 88.54098 38826 ft 535 kts 116°
2026-04-26 07:12 19.20346 88.61391 38831 ft 535 kts 116°
2026-04-26 07:13 19.17585 88.68647 38830 ft 535 kts 115°
2026-04-26 07:13 19.14907 88.75987 38834 ft 535 kts 114°
2026-04-26 07:14 19.12238 88.83339 38831 ft 535 kts 115°
2026-04-26 07:14 19.09556 88.90683 38832 ft 535 kts 115°
2026-04-26 07:15 19.06883 88.97975 38834 ft 535 kts 115°
2026-04-26 07:15 19.04188 89.05314 38838 ft 536 kts 115°
2026-04-26 07:16 19.01491 89.12647 38835 ft 536 kts 115°
2026-04-26 07:16 18.98792 89.19978 38840 ft 536 kts 115°
2026-04-26 07:17 18.96089 89.27308 38843 ft 535 kts 115°
2026-04-26 07:17 18.93402 89.34583 38845 ft 535 kts 115°
2026-04-26 07:18 18.90694 89.41907 38846 ft 535 kts 115°
2026-04-26 07:18 18.87981 89.49234 38849 ft 535 kts 115°
2026-04-26 07:19 18.85271 89.56544 38850 ft 535 kts 115°
2026-04-26 07:19 18.82578 89.63797 38852 ft 535 kts 115°
2026-04-26 07:20 18.79859 89.71109 38852 ft 534 kts 115°
2026-04-26 07:20 18.77145 89.78400 38852 ft 534 kts 115°
2026-04-26 07:21 18.74561 89.85330 38852 ft 534 kts 115°
2026-04-26 07:21 18.71860 89.92566 38852 ft 533 kts 115°
2026-04-26 07:22 18.69141 89.99839 38853 ft 533 kts 115°
2026-04-26 07:22 18.66415 90.07120 38851 ft 533 kts 115°
2026-04-26 07:23 18.63743 90.14249 38851 ft 533 kts 115°
2026-04-26 07:23 18.60989 90.21588 38853 ft 532 kts 115°
2026-04-26 07:24 18.58265 90.28836 38854 ft 532 kts 115°
2026-04-26 07:24 18.55538 90.36083 38855 ft 532 kts 115°
2026-04-26 07:25 18.52808 90.43326 38856 ft 531 kts 115°
2026-04-26 07:25 18.50082 90.50550 38856 ft 531 kts 115°
2026-04-26 07:26 18.47366 90.57739 38860 ft 531 kts 115°
2026-04-26 07:26 18.44640 90.64945 38860 ft 530 kts 115°
2026-04-26 07:27 18.41906 90.72163 38861 ft 530 kts 115°
2026-04-26 07:27 18.39171 90.79372 38860 ft 530 kts 115°
2026-04-26 07:28 18.36461 90.86509 38858 ft 529 kts 115°
2026-04-26 07:28 18.33722 90.93708 38858 ft 529 kts 115°
2026-04-26 07:29 18.31464 90.99639 38861 ft 529 kts 115°
2026-04-26 07:29 18.28710 91.06865 38860 ft 528 kts 115°
2026-04-26 07:30 18.25989 91.13993 38856 ft 528 kts 115°
2026-04-26 07:30 18.23250 91.21160 38854 ft 528 kts 115°
2026-04-26 07:31 18.20508 91.28323 38857 ft 528 kts 115°
2026-04-26 07:31 18.17764 91.35485 38856 ft 528 kts 115°
2026-04-26 07:32 18.15040 91.42585 38853 ft 527 kts 115°
2026-04-26 07:32 18.12294 91.49733 38854 ft 527 kts 115°
2026-04-26 07:33 18.09547 91.56874 38856 ft 527 kts 114°
2026-04-26 07:33 18.06795 91.64021 38854 ft 527 kts 115°
2026-04-26 07:34 18.04042 91.71158 38858 ft 527 kts 115°
2026-04-26 07:34 18.01311 91.78233 38855 ft 527 kts 115°
2026-04-26 07:35 17.98554 91.85364 38857 ft 526 kts 115°
2026-04-26 07:35 17.95798 91.92486 38855 ft 526 kts 114°
2026-04-26 07:36 17.93043 91.99601 38854 ft 526 kts 115°
2026-04-26 07:36 17.90266 92.06653 38855 ft 526 kts 115°
2026-04-26 07:37 17.87450 92.13737 38855 ft 526 kts 115°
2026-04-26 07:37 17.84638 92.20831 38855 ft 526 kts 115°
2026-04-26 07:38 17.81828 92.27914 38858 ft 526 kts 115°
2026-04-26 07:38 17.79013 92.35002 38855 ft 526 kts 115°
2026-04-26 07:39 17.76213 92.42043 38852 ft 526 kts 115°
2026-04-26 07:39 17.73393 92.49125 38854 ft 526 kts 115°
2026-04-26 07:40 17.70566 92.56215 38853 ft 527 kts 115°
2026-04-26 07:40 17.67739 92.63299 38854 ft 527 kts 115°
2026-04-26 07:41 17.64927 92.70335 38854 ft 527 kts 115°
2026-04-26 07:41 17.62097 92.77409 38854 ft 527 kts 115°
2026-04-26 07:42 17.59255 92.84504 38855 ft 527 kts 115°
2026-04-26 07:42 17.56411 92.91594 38852 ft 528 kts 115°
2026-04-26 07:43 17.53585 92.98632 38853 ft 528 kts 115°
2026-04-26 07:43 17.50735 93.05721 38852 ft 528 kts 115°
2026-04-26 07:44 17.47883 93.12805 38856 ft 528 kts 115°
2026-04-26 07:44 17.45100 93.19713 38854 ft 528 kts 115°
2026-04-26 07:45 17.42255 93.26765 38856 ft 529 kts 115°
2026-04-26 07:45 17.39393 93.33850 38857 ft 529 kts 115°
2026-04-26 07:46 17.36526 93.40940 38856 ft 529 kts 115°
2026-04-26 07:46 17.33657 93.48024 38853 ft 529 kts 115°
2026-04-26 07:47 17.30799 93.55074 38857 ft 529 kts 115°
2026-04-26 07:47 17.27922 93.62165 38857 ft 529 kts 115°
2026-04-26 07:48 17.25044 93.69246 38863 ft 529 kts 115°
2026-04-26 07:48 17.22644 93.75147 38857 ft 529 kts 115°
2026-04-26 07:49 17.19296 93.83369 38859 ft 529 kts 115°
2026-04-26 07:49 17.16406 93.90456 38863 ft 530 kts 115°
2026-04-26 07:50 17.12069 94.01077 38860 ft 530 kts 115°
2026-04-26 07:50 17.09173 94.08158 38857 ft 530 kts 115°
2026-04-26 07:51 17.06294 94.15190 38859 ft 529 kts 115°
2026-04-26 07:51 17.03883 94.21072 38861 ft 529 kts 115°
2026-04-26 07:52 17.00495 94.29330 38853 ft 529 kts 115°
2026-04-26 07:52 16.97616 94.36337 38856 ft 529 kts 115°
2026-04-26 07:53 16.95197 94.42219 38849 ft 529 kts 115°
2026-04-26 07:53 16.92289 94.49283 38851 ft 530 kts 115°
2026-04-26 07:54 16.89375 94.56353 38852 ft 530 kts 115°
2026-04-26 07:54 16.86463 94.63411 38846 ft 530 kts 115°
2026-04-26 07:55 16.83545 94.70476 38839 ft 530 kts 115°
2026-04-26 07:55 16.80619 94.77463 38837 ft 528 kts 118°
2026-04-26 07:56 16.77286 94.84293 38834 ft 528 kts 119°
2026-04-26 07:56 16.74491 94.90058 38831 ft 528 kts 119°
2026-04-26 07:57 16.71497 94.96233 38830 ft 528 kts 119°
2026-04-26 07:57 16.68204 95.03004 38834 ft 527 kts 119°
2026-04-26 07:58 16.64876 95.09835 38834 ft 527 kts 119°
2026-04-26 07:58 16.61559 95.16638 38834 ft 527 kts 119°
2026-04-26 07:59 16.58234 95.23447 38831 ft 527 kts 119°
2026-04-26 07:59 16.54936 95.30196 38831 ft 526 kts 119°
2026-04-26 08:00 16.51612 95.36991 38834 ft 526 kts 119°
2026-04-26 08:00 16.48291 95.43775 38838 ft 526 kts 119°
2026-04-26 08:01 16.44964 95.50561 38836 ft 526 kts 119°
2026-04-26 08:01 16.41673 95.57269 38841 ft 525 kts 119°
2026-04-26 08:02 16.38328 95.64080 38844 ft 525 kts 119°
2026-04-26 08:02 16.35021 95.70807 38844 ft 525 kts 119°
2026-04-26 08:03 16.31713 95.77528 38845 ft 525 kts 119°
2026-04-26 08:03 16.28386 95.84282 38844 ft 525 kts 119°
2026-04-26 08:04 16.25054 95.91040 38841 ft 525 kts 119°
2026-04-26 08:04 16.21720 95.97796 38848 ft 525 kts 119°
2026-04-26 08:05 16.18387 96.04542 38853 ft 525 kts 119°
2026-04-26 08:05 16.15071 96.11249 38848 ft 525 kts 119°
2026-04-26 08:06 16.12467 96.16511 38848 ft 525 kts 119°
2026-04-26 08:06 16.09549 96.22401 38849 ft 525 kts 119°
2026-04-26 08:07 16.06204 96.29147 38843 ft 525 kts 119°
2026-04-26 08:07 16.02879 96.35846 38839 ft 525 kts 119°
2026-04-26 08:08 15.99528 96.42593 38845 ft 525 kts 119°
2026-04-26 08:08 15.96181 96.49323 38848 ft 525 kts 119°
2026-04-26 08:09 15.92825 96.56067 38843 ft 525 kts 119°
2026-04-26 08:09 15.89512 96.62717 38847 ft 525 kts 119°
2026-04-26 08:10 15.86133 96.69494 38846 ft 525 kts 119°
2026-04-26 08:10 15.82776 96.76220 38848 ft 525 kts 119°
2026-04-26 08:11 15.79412 96.82952 38853 ft 525 kts 119°
2026-04-26 08:11 15.76052 96.89672 38853 ft 525 kts 119°
2026-04-26 08:12 15.72712 96.96346 38853 ft 524 kts 119°
2026-04-26 08:12 15.69347 97.03061 38855 ft 524 kts 119°
2026-04-26 08:13 15.65986 97.09764 38853 ft 524 kts 119°
2026-04-26 08:13 15.62620 97.16469 38859 ft 523 kts 119°
2026-04-26 08:14 15.59261 97.23155 38856 ft 523 kts 119°
2026-04-26 08:14 15.55917 97.29804 38856 ft 522 kts 119°
2026-04-26 08:15 15.52562 97.36470 38858 ft 522 kts 119°
2026-04-26 08:15 15.49272 97.43000 38858 ft 521 kts 119°
2026-04-26 08:16 15.46429 97.48637 38860 ft 521 kts 119°
2026-04-26 08:16 15.43097 97.55241 38861 ft 520 kts 119°
2026-04-26 08:17 15.39740 97.61887 38862 ft 520 kts 119°
2026-04-26 08:17 15.36389 97.68514 38863 ft 519 kts 119°
2026-04-26 08:18 15.33040 97.75132 38867 ft 518 kts 119°
2026-04-26 08:18 15.29716 97.81696 38870 ft 518 kts 119°
2026-04-26 08:19 15.26368 97.88299 38874 ft 517 kts 119°
2026-04-26 08:19 15.23030 97.94877 38879 ft 516 kts 119°
2026-04-26 08:20 15.19690 98.01454 38880 ft 515 kts 119°
2026-04-26 08:20 15.16374 98.07979 38878 ft 515 kts 119°
2026-04-26 08:21 15.13044 98.14528 38870 ft 514 kts 119°
2026-04-26 08:21 15.09715 98.21069 38865 ft 514 kts 119°
2026-04-26 08:22 15.06434 98.27630 38861 ft 514 kts 118°
2026-04-26 08:22 15.03196 98.34168 38862 ft 513 kts 118°
2026-04-26 08:23 14.99934 98.40732 38862 ft 513 kts 118°
2026-04-26 08:23 14.96668 98.47287 38858 ft 513 kts 118°
2026-04-26 08:24 14.93396 98.53848 38855 ft 513 kts 118°
2026-04-26 08:24 14.90132 98.60388 38854 ft 512 kts 118°
2026-04-26 08:25 14.86884 98.66890 38852 ft 512 kts 118°
2026-04-26 08:25 14.83689 98.73279 38848 ft 512 kts 118°
2026-04-26 08:26 14.80424 98.79802 38844 ft 512 kts 118°
2026-04-26 08:26 14.77151 98.86337 38843 ft 512 kts 118°
2026-04-26 08:27 14.73903 98.92816 38840 ft 511 kts 118°
2026-04-26 08:27 14.70632 98.99337 38837 ft 511 kts 118°
2026-04-26 08:28 14.67358 99.05856 38837 ft 511 kts 118°
2026-04-26 08:28 14.64100 99.12341 38638 ft 505 kts 118°
2026-04-26 08:29 14.62501 99.15519 38377 ft 503 kts 118°
2026-04-26 08:29 14.60894 99.18713 37698 ft 503 kts 118°
2026-04-26 08:29 14.59276 99.21925 36633 ft 509 kts 118°
2026-04-26 08:29 14.57629 99.25193 35389 ft 518 kts 117°
2026-04-26 08:30 14.55951 99.28523 34258 ft 526 kts 117°
2026-04-26 08:30 14.54261 99.31876 33347 ft 526 kts 117°
2026-04-26 08:30 14.52580 99.35213 32673 ft 519 kts 116°
2026-04-26 08:30 14.50947 99.38451 32223 ft 508 kts 116°
2026-04-26 08:31 14.49323 99.41671 31451 ft 504 kts 117°
2026-04-26 08:31 14.47741 99.44805 30738 ft 502 kts 116°
2026-04-26 08:31 14.46178 99.47900 30119 ft 496 kts 116°
2026-04-26 08:31 14.44815 99.51057 29169 ft 494 kts 108°
2026-04-26 08:32 14.43930 99.54458 28401 ft 488 kts 99°
2026-04-26 08:32 14.43509 99.57878 27932 ft 475 kts 92°
2026-04-26 08:32 14.43324 99.61255 27251 ft 468 kts 92°
2026-04-26 08:32 14.43122 99.64596 26562 ft 464 kts 92°
2026-04-26 08:33 14.42912 99.67897 25872 ft 459 kts 92°
2026-04-26 08:33 14.42704 99.71156 25194 ft 455 kts 92°
2026-04-26 08:33 14.42499 99.74356 24516 ft 451 kts 92°
2026-04-26 08:33 14.42294 99.77576 23778 ft 449 kts 92°
2026-04-26 08:34 14.42091 99.80764 23072 ft 444 kts 92°
2026-04-26 08:34 14.41919 99.83458 22339 ft 443 kts 92°
2026-04-26 08:34 14.41718 99.86594 21790 ft 433 kts 92°
2026-04-26 08:34 14.41522 99.89661 21218 ft 426 kts 92°
2026-04-26 08:35 14.41328 99.92660 21032 ft 409 kts 92°
2026-04-26 08:35 14.41143 99.95527 20890 ft 393 kts 92°
2026-04-26 08:35 14.40965 99.98287 20761 ft 379 kts 92°
2026-04-26 08:35 14.40795 100.00917 20646 ft 366 kts 92°
2026-04-26 08:36 14.40629 100.03491 20544 ft 353 kts 92°
2026-04-26 08:36 14.40416 100.05973 20443 ft 342 kts 97°
2026-04-26 08:36 14.39902 100.08324 20357 ft 332 kts 104°
2026-04-26 08:36 14.39313 100.10589 20276 ft 322 kts 103°
2026-04-26 08:37 14.38759 100.12796 20203 ft 312 kts 103°
2026-04-26 08:37 14.38228 100.14930 20132 ft 303 kts 103°
2026-04-26 08:37 14.37713 100.17004 20067 ft 294 kts 103°
2026-04-26 08:37 14.37212 100.19013 20009 ft 285 kts 103°
2026-04-26 08:38 14.36732 100.20936 19959 ft 276 kts 103°
2026-04-26 08:38 14.36259 100.22827 19849 ft 270 kts 103°
2026-04-26 08:38 14.35791 100.24697 19630 ft 269 kts 103°
2026-04-26 08:38 14.35326 100.26560 19395 ft 268 kts 103°
2026-04-26 08:39 14.34863 100.28417 19178 ft 267 kts 103°
2026-04-26 08:39 14.34400 100.30265 18960 ft 266 kts 103°
2026-04-26 08:39 14.33939 100.32107 18727 ft 265 kts 103°
2026-04-26 08:39 14.33491 100.33896 18511 ft 264 kts 103°
2026-04-26 08:40 14.33034 100.35718 18318 ft 262 kts 103°
2026-04-26 08:40 14.32578 100.37534 18108 ft 260 kts 103°
2026-04-26 08:40 14.32132 100.39313 17857 ft 259 kts 103°
2026-04-26 08:40 14.31682 100.41107 17607 ft 259 kts 103°
2026-04-26 08:41 14.31232 100.42900 17370 ft 257 kts 103°
2026-04-26 08:41 14.30814 100.44562 17127 ft 257 kts 103°
2026-04-26 08:41 14.30388 100.46263 16874 ft 256 kts 103°
2026-04-26 08:41 14.29944 100.48032 16659 ft 255 kts 103°
2026-04-26 08:42 14.29498 100.49799 16404 ft 254 kts 103°
2026-04-26 08:42 14.29056 100.51558 16173 ft 252 kts 103°
2026-04-26 08:42 14.28617 100.53303 15951 ft 251 kts 104°
2026-04-26 08:42 14.28186 100.55016 15706 ft 250 kts 104°
2026-04-26 08:43 14.27751 100.56744 15473 ft 249 kts 104°
2026-04-26 08:43 14.27317 100.58469 15234 ft 248 kts 104°
2026-04-26 08:43 14.26885 100.60183 15008 ft 247 kts 104°
2026-04-26 08:43 14.26454 100.61892 14769 ft 246 kts 104°
2026-04-26 08:44 14.26021 100.63615 14384 ft 253 kts 104°
2026-04-26 08:44 14.25382 100.65349 13755 ft 268 kts 124°
2026-04-26 08:44 14.24010 100.66702 13066 ft 281 kts 153°
2026-04-26 08:44 14.22172 100.67232 12883 ft 270 kts 180°
2026-04-26 08:45 14.20392 100.66870 12818 ft 256 kts 204°
2026-04-26 08:45 14.18826 100.66090 12741 ft 245 kts 208°
2026-04-26 08:45 14.17325 100.65365 12679 ft 236 kts 204°
2026-04-26 08:45 14.15819 100.64772 12593 ft 229 kts 200°
2026-04-26 08:46 14.14820 100.64441 12468 ft 227 kts 198°
2026-04-26 08:46 14.13590 100.64076 12289 ft 226 kts 197°
2026-04-26 08:46 14.12066 100.63661 12057 ft 226 kts 196°
2026-04-26 08:47 14.10542 100.63261 11845 ft 225 kts 195°
2026-04-26 08:47 14.09034 100.62869 11672 ft 223 kts 195°
2026-04-26 08:47 14.07531 100.62476 11459 ft 222 kts 195°
2026-04-26 08:47 14.06055 100.62090 11262 ft 221 kts 195°
2026-04-26 08:48 14.04558 100.61697 10978 ft 224 kts 195°
2026-04-26 08:48 14.03006 100.61288 10486 ft 238 kts 195°
2026-04-26 08:48 14.01347 100.60927 9960 ft 251 kts 183°
2026-04-26 08:48 13.99611 100.61284 9408 ft 263 kts 155°
2026-04-26 08:49 13.98171 100.62481 8841 ft 273 kts 128°
2026-04-26 08:49 13.97378 100.64277 8286 ft 282 kts 103°
2026-04-26 08:49 13.97141 100.66277 7753 ft 286 kts 95°
2026-04-26 08:49 13.96963 100.68321 7276 ft 287 kts 93°
2026-04-26 08:50 13.97263 100.70345 6800 ft 289 kts 69°
2026-04-26 08:50 13.98368 100.72025 6449 ft 287 kts 43°
2026-04-26 08:50 14.00059 100.73045 6136 ft 281 kts 18°
2026-04-26 08:50 14.01930 100.73554 5827 ft 276 kts 13°
2026-04-26 08:51 14.05581 100.74525 5155 ft 271 kts 15°
2026-04-26 08:51 14.07402 100.75019 4793 ft 270 kts 14°
2026-04-26 08:51 14.09223 100.75492 4422 ft 269 kts 14°
2026-04-26 08:52 14.11033 100.75959 4099 ft 267 kts 14°
2026-04-26 08:52 14.12801 100.76415 3987 ft 257 kts 14°
2026-04-26 08:52 14.14477 100.76934 3880 ft 246 kts 27°
2026-04-26 08:52 14.15716 100.78045 3801 ft 230 kts 58°
2026-04-26 08:53 14.16181 100.79525 3683 ft 215 kts 91°
2026-04-26 08:53 14.15889 100.80920 3625 ft 181 kts 110°
2026-04-26 08:53 14.15485 100.82058 3487 ft 165 kts 122°
2026-04-26 08:53 14.14622 100.82773 3386 ft 161 kts 163°
2026-04-26 08:54 14.13649 100.82971 3334 ft 162 kts 169°
2026-04-26 08:54 14.12565 100.83186 3247 ft 152 kts 169°
2026-04-26 08:54 14.11562 100.83401 3132 ft 144 kts 162°
2026-04-26 08:54 14.10883 100.84083 3020 ft 146 kts 107°
2026-04-26 08:55 14.11053 100.85026 2976 ft 150 kts 53°
2026-04-26 08:55 14.11916 100.85623 2984 ft 151 kts 35°
2026-04-26 08:55 14.12488 100.86490 2972 ft 149 kts 81°
2026-04-26 08:55 14.12280 100.87446 2973 ft 146 kts 127°
2026-04-26 08:56 14.11432 100.87954 2979 ft 142 kts 168°
2026-04-26 08:56 14.10465 100.88075 2965 ft 139 kts 184°
2026-04-26 08:56 14.09550 100.87835 2970 ft 138 kts 195°
2026-04-26 08:56 14.08626 100.87586 2966 ft 137 kts 194°
2026-04-26 08:57 14.07712 100.87317 2972 ft 137 kts 198°
2026-04-26 08:57 14.06804 100.86992 2970 ft 139 kts 200°
2026-04-26 08:57 14.05966 100.86512 2985 ft 139 kts 212°
2026-04-26 08:57 14.05177 100.85952 2973 ft 139 kts 225°
2026-04-26 08:58 14.04512 100.85247 2972 ft 138 kts 204°
2026-04-26 08:58 14.03574 100.85081 2984 ft 138 kts 186°
2026-04-26 08:58 14.02636 100.84937 2986 ft 139 kts 191°
2026-04-26 08:58 14.01684 100.84700 2984 ft 138 kts 194°
2026-04-26 08:59 14.00769 100.84454 2984 ft 139 kts 194°
2026-04-26 08:59 13.99839 100.84212 2985 ft 137 kts 194°
2026-04-26 08:59 13.98912 100.83966 2974 ft 138 kts 194°
2026-04-26 08:59 13.97984 100.83719 2983 ft 138 kts 194°
2026-04-26 09:00 13.97053 100.83473 2985 ft 139 kts 194°
2026-04-26 09:00 13.96127 100.83229 2984 ft 137 kts 194°
2026-04-26 09:00 13.95193 100.82982 2990 ft 138 kts 194°
2026-04-26 09:00 13.94266 100.82736 2989 ft 137 kts 194°
2026-04-26 09:01 13.93339 100.82490 2987 ft 138 kts 194°
2026-04-26 09:01 13.92420 100.82249 2986 ft 138 kts 193°
2026-04-26 09:01 13.91489 100.82003 2986 ft 138 kts 194°
2026-04-26 09:01 13.90559 100.81757 2990 ft 138 kts 194°
2026-04-26 09:02 13.89631 100.81508 2990 ft 138 kts 194°
2026-04-26 09:02 13.88696 100.81264 2985 ft 139 kts 194°
2026-04-26 09:02 13.87763 100.81018 2984 ft 138 kts 194°
2026-04-26 09:02 13.86827 100.80769 2993 ft 138 kts 194°
2026-04-26 09:03 13.85897 100.80523 2986 ft 138 kts 194°
2026-04-26 09:03 13.84967 100.80279 2991 ft 138 kts 194°
2026-04-26 09:03 13.84037 100.80032 2886 ft 138 kts 194°
2026-04-26 09:03 13.83122 100.79790 2712 ft 137 kts 194°
2026-04-26 09:04 13.82205 100.79548 2552 ft 137 kts 194°
2026-04-26 09:04 13.81286 100.79305 2394 ft 136 kts 193°
2026-04-26 09:04 13.80368 100.79064 2211 ft 135 kts 194°
2026-04-26 09:04 13.79457 100.78819 2038 ft 135 kts 193°
2026-04-26 09:05 13.78554 100.78586 1869 ft 132 kts 193°
2026-04-26 09:05 13.77654 100.78347 1700 ft 135 kts 194°
2026-04-26 09:05 13.76746 100.78106 1537 ft 135 kts 193°
2026-04-26 09:05 13.75829 100.77864 1359 ft 134 kts 193°
2026-04-26 09:06 13.74935 100.77630 1177 ft 131 kts 193°
2026-04-26 09:06 13.74179 100.77428 1038 ft 133 kts 194°
2026-04-26 09:06 13.73276 100.77187 869 ft 131 kts 194°
2026-04-26 09:06 13.72521 100.76985 734 ft 134 kts 194°
2026-04-26 09:07 13.71862 100.76813 599 ft 137 kts 194°
2026-04-26 09:07 13.71005 100.76594 428 ft 139 kts 195°
2026-04-26 09:07 13.69948 100.76303 254 ft 179 kts 195°
2026-04-26 09:07 13.68679 100.75976 54 ft 192 kts 196°
2026-04-26 09:08 13.67415 100.75656 631 ft 179 kts 193°
2026-04-26 09:08 13.66208 100.75420 1399 ft 182 kts 189°
2026-04-26 09:08 13.64860 100.75148 2133 ft 208 kts 192°
2026-04-26 09:08 13.63475 100.74801 2854 ft 204 kts 188°
2026-04-26 09:09 13.62123 100.75016 2979 ft 197 kts 147°
2026-04-26 09:09 13.61318 100.76068 2977 ft 194 kts 108°
2026-04-26 09:09 13.61076 100.77427 2975 ft 193 kts 99°
2026-04-26 09:09 13.60879 100.78795 2973 ft 193 kts 99°
2026-04-26 09:10 13.60680 100.80164 2972 ft 194 kts 99°
2026-04-26 09:10 13.60484 100.81526 2971 ft 192 kts 96°
2026-04-26 09:10 13.60770 100.82836 2978 ft 193 kts 53°
2026-04-26 09:10 13.61862 100.83630 2981 ft 197 kts 22°
2026-04-26 09:11 13.63180 100.84014 2977 ft 198 kts 14°
2026-04-26 09:11 13.64517 100.84345 2973 ft 197 kts 14°
2026-04-26 09:11 13.65757 100.84654 2970 ft 197 kts 14°
2026-04-26 09:11 13.67091 100.84987 2975 ft 197 kts 14°
2026-04-26 09:12 13.68407 100.85315 2969 ft 197 kts 14°
2026-04-26 09:12 13.69738 100.85646 2974 ft 197 kts 14°
2026-04-26 09:12 13.71069 100.85981 2970 ft 198 kts 14°
2026-04-26 09:12 13.72405 100.86318 2974 ft 198 kts 14°
2026-04-26 09:13 13.73743 100.86657 2969 ft 197 kts 14°
2026-04-26 09:13 13.75073 100.86994 2973 ft 197 kts 14°
2026-04-26 09:13 13.76404 100.87335 2977 ft 197 kts 14°
2026-04-26 09:13 13.77736 100.87677 2979 ft 198 kts 14°
2026-04-26 09:14 13.79071 100.88019 2974 ft 197 kts 14°
2026-04-26 09:14 13.80380 100.88354 2974 ft 197 kts 14°
2026-04-26 09:14 13.81716 100.88698 2976 ft 198 kts 14°
2026-04-26 09:14 13.83052 100.89041 2976 ft 198 kts 14°
2026-04-26 09:15 13.84393 100.89386 2977 ft 198 kts 14°
2026-04-26 09:15 13.85724 100.89729 2977 ft 198 kts 14°
2026-04-26 09:15 13.87059 100.90075 2971 ft 198 kts 14°
2026-04-26 09:15 13.88395 100.90413 2973 ft 197 kts
2026-04-26 09:16 13.89739 100.90258 2980 ft 198 kts 334°
2026-04-26 09:16 13.90731 100.89316 2973 ft 196 kts 296°
2026-04-26 09:16 13.91151 100.87984 2981 ft 197 kts 284°
2026-04-26 09:16 13.91419 100.86607 2969 ft 196 kts 275°
2026-04-26 09:17 13.91229 100.85275 2970 ft 192 kts 241°
2026-04-26 09:17 13.90419 100.84177 2984 ft 194 kts 229°
2026-04-26 09:17 13.89548 100.83116 2971 ft 195 kts 229°
2026-04-26 09:17 13.88677 100.82069 2971 ft 191 kts 222°
2026-04-26 09:18 13.87513 100.81443 2983 ft 192 kts 195°
2026-04-26 09:18 13.86237 100.81014 2975 ft 193 kts 206°
2026-04-26 09:18 13.85039 100.80402 2978 ft 192 kts 202°
2026-04-26 09:18 13.83775 100.79956 2862 ft 191 kts 195°
2026-04-26 09:19 13.82542 100.79639 2633 ft 184 kts 193°
2026-04-26 09:19 13.81306 100.79309 2385 ft 183 kts 194°
2026-04-26 09:19 13.80076 100.78987 2133 ft 182 kts 194°
2026-04-26 09:19 13.78865 100.78665 1912 ft 170 kts 194°
2026-04-26 09:20 13.77799 100.78385 1688 ft 149 kts 193°
2026-04-26 09:20 13.76823 100.78127 1537 ft 151 kts 191°
2026-04-26 09:20 13.76028 100.78139 1821 ft 165 kts 172°
2026-04-26 09:20 13.74933 100.78433 2140 ft 170 kts 164°
2026-04-26 09:21 13.73848 100.78680 2364 ft 155 kts 175°
2026-04-26 09:21 13.72841 100.78520 2739 ft 143 kts 192°
2026-04-26 09:21 13.71855 100.78326 3231 ft 147 kts 190°
2026-04-26 09:21 13.70820 100.78117 3648 ft 162 kts 188°
2026-04-26 09:22 13.69700 100.78283 4445 ft 172 kts 161°
2026-04-26 09:22 13.68371 100.78678 4130 ft 223 kts 171°
2026-04-26 09:22 13.66711 100.78928 4118 ft 253 kts 163°
2026-04-26 09:22 13.65157 100.79687 5162 ft 248 kts 158°
2026-04-26 09:23 13.63391 100.79969 5751 ft 270 kts 186°
2026-04-26 09:23 13.61501 100.79565 6393 ft 288 kts 193°
2026-04-26 09:23 13.59389 100.79071 5938 ft 342 kts 192°
2026-04-26 09:23 13.56892 100.78618 5665 ft 381 kts 183°
2026-04-26 09:24 13.54318 100.78962 6937 ft 368 kts 163°
2026-04-26 09:24 13.52104 100.80145 8381 ft 355 kts 142°
2026-04-26 09:24 13.50462 100.81718 8737 ft 373 kts 136°
2026-04-26 09:24 13.48767 100.83893 8862 ft 396 kts 119°
2026-04-26 09:25 13.47849 100.86492 10292 ft 382 kts 101°
2026-04-26 09:25 13.47776 100.89153 11678 ft 368 kts 82°
2026-04-26 09:25 13.48502 100.91607 13070 ft 353 kts 63°
2026-04-26 09:25 13.49879 100.93596 14339 ft 328 kts 45°
2026-04-26 09:26 13.51552 100.94916 15109 ft 286 kts 28°
2026-04-26 09:26 13.53280 100.95634 15419 ft 259 kts 13°
2026-04-26 09:26 13.55013 100.95882 15388 ft 247 kts 359°
2026-04-26 09:26 13.56742 100.95713 15073 ft 258 kts 346°
2026-04-26 09:27 13.58519 100.95220 14523 ft 272 kts 344°
2026-04-26 09:27 13.60403 100.94702 13727 ft 292 kts 344°
2026-04-26 09:27 13.62440 100.94162 12718 ft 313 kts 345°
2026-04-26 09:27 13.64607 100.93595 11736 ft 329 kts 345°
2026-04-26 09:28 13.66866 100.93004 10777 ft 340 kts 345°
2026-04-26 09:28 13.69188 100.92395 9856 ft 349 kts 345°
2026-04-26 09:28 13.71527 100.91780 8880 ft 354 kts 345°
2026-04-26 09:28 13.73916 100.91151 7907 ft 357 kts 345°
2026-04-26 09:29 13.76337 100.90514 6953 ft 359 kts 345°
2026-04-26 09:29 13.78754 100.89876 6020 ft 359 kts 345°
2026-04-26 09:29 13.81057 100.89269 5094 ft 358 kts 345°
2026-04-26 09:29 13.83462 100.88635 4140 ft 356 kts 345°
2026-04-26 09:30 13.85757 100.87782 3438 ft 346 kts 331°
2026-04-26 09:30 13.87856 100.86760 3144 ft 325 kts 345°
2026-04-26 09:30 13.90028 100.86610 3010 ft 305 kts
2026-04-26 09:30 13.91904 100.87325 2978 ft 284 kts 33°
2026-04-26 09:31 13.93225 100.88715 2979 ft 263 kts 57°
2026-04-26 09:31 13.94363 100.90105 2968 ft 247 kts 36°
2026-04-26 09:31 13.95792 100.90735 2973 ft 233 kts 11°
2026-04-26 09:31 13.97346 100.90631 2974 ft 220 kts 338°
2026-04-26 09:32 13.98520 100.89834 2985 ft 208 kts 319°
2026-04-26 09:32 13.99235 100.89196 2978 ft 202 kts 319°
2026-04-26 09:32 14.00215 100.88218 2969 ft 197 kts 301°
2026-04-26 09:32 14.00566 100.86899 2977 ft 192 kts 264°
2026-04-26 09:33 14.00072 100.85646 2985 ft 191 kts 227°
2026-04-26 09:33 13.99108 100.84774 2979 ft 177 kts 219°
2026-04-26 09:33 13.98173 100.84010 2975 ft 171 kts 212°
2026-04-26 09:33 13.97090 100.83494 2980 ft 173 kts 198°
2026-04-26 09:34 13.95926 100.83166 2976 ft 173 kts 193°
2026-04-26 09:34 13.94759 100.82871 2976 ft 173 kts 194°
2026-04-26 09:34 13.93595 100.82558 2981 ft 173 kts 194°
2026-04-26 09:34 13.92428 100.82250 2972 ft 173 kts 194°
2026-04-26 09:35 13.91282 100.81948 2984 ft 168 kts 194°
2026-04-26 09:35 13.90179 100.81655 2975 ft 162 kts 194°
2026-04-26 09:35 13.89097 100.81368 2982 ft 160 kts 194°
2026-04-26 09:35 13.88017 100.81085 2977 ft 161 kts 194°
2026-04-26 09:36 13.86935 100.80798 2985 ft 161 kts 194°
2026-04-26 09:36 13.85855 100.80512 2978 ft 160 kts 194°
2026-04-26 09:36 13.84780 100.80229 2974 ft 159 kts 194°
2026-04-26 09:36 13.83747 100.79955 2813 ft 148 kts 194°
2026-04-26 09:37 13.82781 100.79701 2637 ft 139 kts 194°
2026-04-26 09:37 13.81865 100.79458 2463 ft 135 kts 194°
2026-04-26 09:37 13.80971 100.79223 2307 ft 134 kts 193°
2026-04-26 09:37 13.80070 100.78984 2127 ft 133 kts 193°
2026-04-26 09:38 13.79182 100.78747 1964 ft 132 kts 193°
2026-04-26 09:38 13.78293 100.78517 1791 ft 130 kts 194°
2026-04-26 09:38 13.77406 100.78281 1632 ft 132 kts 193°
2026-04-26 09:38 13.76527 100.78048 1467 ft 130 kts 193°
2026-04-26 09:39 13.75638 100.77814 1292 ft 131 kts 193°
2026-04-26 09:39 13.74771 100.77588 1114 ft 129 kts 193°
2026-04-26 09:39 13.73913 100.77354 940 ft 128 kts 193°
2026-04-26 09:39 13.73045 100.77127 782 ft 128 kts 194°
2026-04-26 09:40 13.72179 100.76897 630 ft 130 kts 194°
2026-04-26 09:40 13.71287 100.76670 457 ft 132 kts 194°
2026-04-26 09:40 13.70396 100.76432 288 ft 132 kts 195°
2026-04-26 09:40 13.69498 100.76192 118 ft 134 kts 194°
2026-04-26 09:41 13.68901 100.76035 29 ft 134 kts 194°
2026-04-26 09:41 13.68000 100.75795 17 ft 81 kts 195°
2026-04-26 09:41 13.67650 100.75691 16 ft 30 kts 210°
2026-04-26 09:41 13.67496 100.75588 21 ft 28 kts 219°
2026-04-26 09:42 13.67447 100.75516 20 ft 0 kts 277°
2026-04-26 09:45 13.67451 100.75495 22 ft 4 kts 298°
2026-04-26 09:45 13.67481 100.75473 19 ft 7 kts 350°
2026-04-26 09:45 13.67544 100.75486 19 ft 12 kts 17°
2026-04-26 09:45 13.67643 100.75512 21 ft 17 kts 13°
2026-04-26 09:46 13.67771 100.75544 20 ft 21 kts 14°
2026-04-26 09:46 13.67916 100.75583 21 ft 16 kts 14°
2026-04-26 09:46 13.68035 100.75615 19 ft 20 kts 14°
2026-04-26 09:46 13.68178 100.75652 20 ft 22 kts 14°
2026-04-26 09:47 13.68274 100.75676 21 ft 2 kts 355°
2026-04-26 09:47 13.68300 100.75665 20 ft 6 kts 318°
2026-04-26 09:47 13.68321 100.75617 21 ft 11 kts 285°
2026-04-26 09:47 13.68347 100.75523 19 ft 16 kts 286°
2026-04-26 09:48 13.68382 100.75396 19 ft 20 kts 285°
2026-04-26 09:48 13.68420 100.75244 19 ft 23 kts 283°
2026-04-26 09:48 13.68459 100.75074 20 ft 25 kts 284°
2026-04-26 09:48 13.68504 100.74895 20 ft 27 kts 284°
2026-04-26 09:49 13.68548 100.74724 20 ft 20 kts 285°
2026-04-26 09:49 13.68577 100.74612 22 ft 18 kts 284°
2026-04-26 09:49 13.68612 100.74475 21 ft 21 kts 285°
2026-04-26 09:49 13.68621 100.74438 19 ft 8 kts 284°
2026-04-26 09:50 13.68644 100.74381 23 ft 8 kts 336°
2026-04-26 09:50 13.68716 100.74377 21 ft 13 kts 11°
2026-04-26 09:50 13.68822 100.74404 22 ft 18 kts 14°
2026-04-26 09:50 13.68959 100.74440 21 ft 22 kts 15°
2026-04-26 09:51 13.68993 100.74450 22 ft 6 kts 15°
2026-04-26 09:51 13.69057 100.74467 19 ft 12 kts 18°
2026-04-26 09:51 13.69073 100.74496 22 ft 6 kts 106°
2026-04-26 09:51 13.69063 100.74542 21 ft 0 kts 101°
2026-04-26 09:52 13.69060 100.74555 18 ft 1 kts 101°
2026-04-26 09:52 13.69060 100.74557 18 ft 0 kts 101°